FW7122 Weather Reports


time (UTC)temp
F
wind
direction
speed
knots
gust
knots
rain 1hr
in
rain 24hr
in
rain mn
in
humidity
%
barometer
mb
20260508115320 49 219 0.0 4.3 0.00 0.00 0.00 82 1012.1
20260508114812 49 219 1.7 4.3 0.00 0.00 0.00 81 1012.1
20260508114325 49 219 0.0 4.3 0.00 0.00 0.00 81 1011.9
20260508113816 49 219 0.9 3.5 0.00 0.00 0.00 81 1011.9
20260508113326 49 219 0.0 4.3 0.00 0.00 0.00 81 1011.9
20260508112822 49 217 0.9 4.3 0.00 0.00 0.00 80 1011.9
20260508112315 49 217 0.0 5.2 0.00 0.00 0.00 80 1011.8
20260508111827 49 217 0.0 7.0 0.00 0.00 0.00 79 1011.8
20260508111319 49 216 0.0 7.8 0.00 0.00 0.00 79 1011.7
20260508110811 49 210 0.9 7.8 0.00 0.00 0.00 78 1011.7
20260508110323 49 212 0.9 7.8 0.00 0.00 0.00 78 1011.6
20260508105815 49 212 3.5 7.8 0.00 0.00 0.00 78 1011.6
20260508105327 49 203 1.7 3.5 0.00 0.00 0.00 79 1011.6
20260508104840 48 203 0.0 7.8 0.00 0.00 0.00 79 1011.5
20260508104316 48 203 1.7 7.8 0.00 0.00 0.00 79 1011.6
20260508103828 48 209 0.0 5.2 0.00 0.00 0.00 79 1011.6
20260508103320 48 209 0.0 6.1 0.00 0.00 0.00 80 1011.5
20260508102812 48 209 0.0 6.1 0.00 0.00 0.00 80 1011.6
20260508102324 48 206 1.7 7.8 0.00 0.00 0.00 80 1011.5
20260508101836 48 216 3.5 7.8 0.00 0.00 0.00 81 1011.6
20260508101327 48 204 2.6 7.8 0.00 0.00 0.00 81 1011.6
20260508100819 47 202 2.6 9.6 0.00 0.00 0.00 82 1011.6
20260508100310 47 215 2.6 9.6 0.00 0.00 0.00 82 1011.7
20260508095826 47 212 3.5 7.8 0.00 0.00 0.00 82 1011.7
20260508095339 47 200 0.0 5.2 0.00 0.00 0.00 83 1011.6
20260508094810 47 200 0.0 5.2 0.00 0.00 0.00 83 1011.6
20260508094322 47 200 1.7 3.5 0.00 0.00 0.00 83 1011.5
20260508093815 47 200 0.0 4.3 0.00 0.00 0.00 83 1011.6
20260508093326 47 200 0.9 4.3 0.00 0.00 0.00 82 1011.6
20260508092818 47 200 0.9 4.3 0.00 0.00 0.00 82 1011.6
20260508092313 47 200 0.0 6.1 0.00 0.00 0.00 82 1011.6
20260508091822 47 200 1.7 6.1 0.00 0.00 0.00 82 1011.7
20260508091318 47 200 0.0 6.1 0.00 0.00 0.00 82 1011.7
20260508090810 47 200 0.0 6.1 0.00 0.00 0.00 82 1011.7
20260508090323 47 199 1.7 5.2 0.00 0.00 0.00 81 1011.7
20260508085815 47 198 3.5 5.2 0.00 0.00 0.00 81 1011.8
20260508085347 47 198 1.7 5.2 0.00 0.00 0.00 81 1011.8
20260508084818 47 198 1.7 5.2 0.00 0.00 0.00 81 1011.9
20260508084310 47 208 0.9 7.8 0.00 0.00 0.00 81 1011.9
20260508083822 47 208 2.6 7.8 0.00 0.00 0.00 81 1011.9
20260508083334 47 205 0.0 7.8 0.00 0.00 0.00 81 1011.8
20260508082830 47 205 3.5 8.7 0.00 0.00 0.00 81 1011.9
20260508082322 47 217 1.7 6.1 0.00 0.00 0.00 81 1012.0
20260508081814 47 217 0.9 7.0 0.00 0.00 0.00 81 1012.0
20260508081327 47 238 3.5 7.0 0.00 0.00 0.00 80 1012.1
20260508080819 48 186 3.5 6.1 0.00 0.00 0.00 80 1012.1
20260508080311 48 217 2.6 7.0 0.00 0.00 0.00 80 1012.1
20260508075823 48 215 1.7 6.1 0.00 0.00 0.00 79 1012.1
20260508075316 48 215 1.7 5.2 0.00 0.00 0.00 79 1012.0
20260508074812 48 215 0.9 6.1 0.00 0.00 0.00 78 1012.1
20260508074325 48 213 0.0 4.3 0.00 0.00 0.00 78 1012.0
20260508073817 48 213 2.6 5.2 0.00 0.00 0.00 78 1012.1
20260508073329 48 213 0.9 7.8 0.00 0.00 0.00 77 1012.2
20260508072839 49 212 2.6 7.8 0.00 0.00 0.00 77 1012.1
20260508072310 49 244 2.6 8.7 0.00 0.00 0.00 76 1012.2
20260508071821 49 227 2.6 9.6 0.00 0.00 0.00 76 1012.3
20260508071315 49 200 2.6 10.4 0.00 0.00 0.00 75 1012.3
20260508070810 49 221 2.6 10.4 0.00 0.00 0.00 75 1012.4
20260508070322 49 198 7.0 10.4 0.00 0.00 0.00 74 1012.4
20260508065834 49 208 5.2 9.6 0.00 0.00 0.00 74 1012.3
20260508065326 49 207 1.7 11.3 0.00 0.00 0.00 73 1012.3
20260508064818 49 314 4.3 12.2 0.00 0.00 0.00 73 1012.3
20260508064332 49 260 3.5 12.2 0.00 0.00 0.00 73 1012.2
20260508063822 49 213 5.2 10.4 0.00 0.00 0.00 73 1012.3
20260508063334 49 209 4.3 9.6 0.00 0.00 0.00 72 1012.2
20260508062825 49 208 4.3 9.6 0.00 0.00 0.00 72 1012.2
20260508062337 49 205 3.5 7.0 0.00 0.00 0.00 72 1012.2
20260508061847 49 199 1.7 6.1 0.00 0.00 0.00 72 1012.2
20260508061318 49 191 0.9 6.1 0.00 0.00 0.00 71 1012.2
20260508060815 49 188 1.7 6.1 0.00 0.00 0.00 71 1012.2
20260508060327 49 216 1.7 6.1 0.00 0.00 0.00 71 1012.3
20260508055819 49 216 3.5 6.1 0.00 0.00 0.00 71 1012.3
20260508055311 49 216 1.7 7.8 0.00 0.00 0.00 70 1012.4
20260508054821 49 216 4.3 7.8 0.00 0.00 0.00 70 1012.4
20260508054314 50 216 4.3 8.7 0.00 0.00 0.00 70 1012.5
20260508053827 50 219 3.5 5.2 0.00 0.00 0.00 70 1012.5
20260508053320 50 219 0.0 5.2 0.00 0.00 0.00 70 1012.5
20260508052816 50 219 0.0 5.2 0.00 0.00 0.00 70 1012.6
20260508052328 50 219 2.6 5.2 0.00 0.00 0.00 70 1012.5
20260508051820 50 219 2.6 6.1 0.00 0.00 0.00 69 1012.6
20260508051332 50 219 2.6 6.1 0.00 0.00 0.00 69 1012.8
20260508050824 50 219 0.0 7.8 0.00 0.00 0.00 69 1012.8
20260508050315 50 221 0.9 8.7 0.00 0.00 0.00 69 1012.8
20260508045827 50 221 5.2 8.7 0.00 0.00 0.00 69 1012.8
20260508045339 50 205 0.0 4.3 0.00 0.00 0.00 68 1012.8
20260508044848 50 205 0.9 6.1 0.00 0.00 0.00 68 1012.8
20260508044317 50 205 0.9 6.1 0.00 0.00 0.00 68 1012.8
20260508043812 50 205 0.9 6.1 0.00 0.00 0.00 67 1012.8
20260508043344 50 202 0.9 5.2 0.00 0.00 0.00 67 1012.8
20260508042815 50 202 0.0 5.2 0.00 0.00 0.00 67 1012.9
20260508042325 50 198 1.7 5.2 0.00 0.00 0.00 67 1012.8
20260508041816 50 198 1.7 5.2 0.00 0.00 0.00 67 1012.8
20260508041328 50 198 1.7 7.8 0.00 0.00 0.00 67 1012.8
20260508040820 50 198 1.7 7.8 0.00 0.00 0.00 66 1012.8
20260508040311 50 205 0.0 8.7 0.00 0.00 0.00 66 1012.8
20260508035824 50 205 4.3 9.6 0.00 0.00 0.00 66 1012.9
20260508035318 50 217 5.2 9.6 0.00 0.00 0.00 66 1012.8
20260508034811 51 225 0.0 7.8 0.00 0.00 0.00 66 1012.8
20260508034322 51 223 3.5 7.8 0.00 0.00 0.00 66 1012.7
20260508033813 50 236 4.3 8.7 0.00 0.00 0.00 66 1012.8
20260508033325 50 208 2.6 8.7 0.00 0.00 0.00 66 1012.9
20260508032838 50 207 2.6 8.7 0.00 0.00 0.00 66 1012.9
20260508032327 50 202 0.0 8.7 0.00 0.00 0.00 66 1012.9
20260508031840 50 227 5.2 13.0 0.00 0.00 0.00 66 1012.9
20260508031312 50 238 0.0 7.8 0.00 0.00 0.00 66 1013.0
20260508030825 50 254 1.7 7.8 0.00 0.00 0.00 66 1013.0
20260508030320 49 258 3.5 7.8 0.00 0.00 0.00 66 1013.0
20260508025812 49 236 1.7 6.1 0.00 0.00 0.00 67 1013.0
20260508025325 49 248 0.0 0.0 0.00 0.00 0.00 67 1013.0
20260508024817 49 248 0.0 3.5 0.00 0.00 0.00 67 1013.1
20260508024328 49 248 0.0 3.5 0.00 0.00 0.00 67 1013.1
20260508023820 48 248 2.6 5.2 0.00 0.00 0.00 67 1013.1
20260508023313 48 248 1.7 6.1 0.00 0.00 0.00 69 1013.0
20260508022824 47 248 4.3 6.1 0.00 0.00 0.00 71 1013.0
20260508022320 47 252 0.0 0.0 0.00 0.00 0.00 70 1012.9
20260508021810 47 252 0.0 0.0 0.00 0.00 0.00 71 1012.9
20260508021341 47 252 0.0 0.0 0.00 0.00 0.00 71 1012.8
20260508020812 47 252 0.0 0.0 0.00 0.00 0.00 71 1012.8
20260508020325 47 252 0.0 0.0 0.00 0.00 0.00 71 1012.8
20260508015818 47 252 0.0 0.0 0.00 0.00 0.00 71 1012.8
20260508015329 47 252 0.0 0.0 0.00 0.00 0.00 70 1012.8
20260508014841 47 252 0.0 0.0 0.00 0.00 0.00 70 1012.7
20260508014332 47 252 0.0 0.0 0.00 0.00 0.00 69 1012.7
20260508013822 47 252 0.0 0.0 0.00 0.00 0.00 68 1012.6
20260508013319 47 252 0.0 0.0 0.00 0.00 0.00 67 1012.6
20260508012829 48 252 0.0 0.0 0.00 0.00 0.00 66 1012.6
20260508012342 48 252 0.0 0.0 0.00 0.00 0.00 66 1012.5
20260508011811 48 252 0.0 0.0 0.00 0.00 0.00 68 1012.4
20260508011324 49 252 0.0 0.0 0.00 0.00 0.00 64 1012.3
20260508010814 49 252 0.0 0.0 0.00 0.00 0.00 63 1012.3
20260508010326 49 252 0.0 0.0 0.00 0.00 0.00 61 1012.3
20260508005817 50 252 0.0 0.0 0.00 0.00 0.00 60 1012.3
20260508005346 50 252 0.0 0.0 0.00 0.00 0.00 59 1012.3
20260508004818 51 252 0.0 0.0 0.00 0.00 0.00 58 1012.2
20260508004350 51 252 0.0 0.0 0.00 0.00 0.00 58 1012.3
20260508003826 51 252 0.0 0.0 0.00 0.00 0.00 57 1012.3
20260508003338 52 252 0.0 0.0 0.00 0.00 0.00 56 1012.3
20260508002849 52 252 0.0 0.0 0.00 0.00 0.00 55 1012.3
20260508002320 52 252 0.0 5.2 0.00 0.00 0.00 54 1012.2
20260508001811 52 252 0.9 5.2 0.00 0.00 0.00 54 1012.2
20260508001323 53 252 0.0 0.9 0.00 0.00 0.00 53 1012.2
20260508000814 53 252 0.0 0.0 0.00 0.00 0.00 53 1012.2
20260508000327 53 252 0.0 3.5 0.00 0.00 0.00 53 1012.1
20260507235838 53 252 0.9 3.5 0.00 0.00 0.00 52 1012.1
20260507235328 53 252 0.0 3.5 0.00 0.00 0.00 52 1012.1
20260507234841 53 252 0.0 5.2 0.00 0.00 0.00 52 1012.1
20260507234332 54 252 1.7 5.2 0.00 0.00 0.00 53 1012.1
20260507233826 54 253 0.0 3.5 0.00 0.00 0.00 52 1012.1
20260507233319 54 253 0.9 6.1 0.00 0.00 0.00 53 1012.1
20260507232811 54 253 2.6 6.1 0.00 0.00 0.00 52 1012.1
20260507181827 56 248 0.9 8.7 0.00 0.00 0.00 58 1012.1
20260507181324 56 249 2.6 7.8 0.00 0.00 0.00 58 1012.2
20260507180817 56 248 4.3 7.8 0.00 0.00 0.00 59 1012.1
20260507180329 56 250 0.9 7.8 0.00 0.00 0.00 62 1012.1
20260507175822 56 250 0.9 7.8 0.00 0.00 0.00 58 1012.2
20260507175313 55 250 0.9 5.2 0.00 0.00 0.00 62 1012.1
20260507174824 55 252 0.0 5.2 0.00 0.00 0.00 61 1012.2
20260507174317 55 252 1.7 5.2 0.00 0.00 0.00 62 1012.2
20260507173830 55 252 2.6 7.8 0.00 0.00 0.00 61 1012.3
20260507173326 55 252 0.9 8.7 0.00 0.00 0.00 61 1012.4
20260507172819 55 250 0.0 8.7 0.00 0.00 0.00 62 1012.4
20260507172311 55 249 1.7 11.3 0.00 0.00 0.00 62 1012.4
20260507171824 55 249 5.2 11.3 0.00 0.00 0.00 61 1012.5
20260507171316 56 244 1.7 10.4 0.00 0.00 0.00 61 1012.6
20260507170829 56 230 1.7 9.6 0.00 0.00 0.00 61 1012.5
20260507170340 56 230 2.6 9.6 0.00 0.00 0.00 61 1012.5
20260507165811 56 225 0.9 8.7 0.00 0.00 0.00 60 1012.5
20260507165325 56 219 1.7 8.7 0.00 0.00 0.00 57 1012.5
20260507164821 56 219 1.7 6.1 0.00 0.00 0.00 56 1012.5
20260507164314 56 218 2.6 6.1 0.00 0.00 0.00 56 1012.5
20260507163847 57 217 0.9 5.2 0.00 0.00 0.00 55 1012.5
20260507163318 57 217 0.9 5.2 0.00 0.00 0.00 58 1012.5
20260507162850 57 216 1.7 5.2 0.00 0.00 0.00 55 1012.5
20260507162321 56 220 0.0 4.3 0.00 0.00 0.00 55 1012.5
20260507161814 57 220 1.7 7.8 0.00 0.00 0.00 56 1012.6
20260507161327 56 220 0.9 7.8 0.00 0.00 0.00 58 1012.4
20260507160818 55 219 2.6 8.7 0.00 0.00 0.00 59 1012.5
20260507160314 55 219 2.6 7.8 0.00 0.00 0.00 58 1012.6
20260507155828 55 219 1.7 6.1 0.00 0.00 0.00 62 1012.6
20260507155320 54 215 0.9 3.5 0.00 0.00 0.00 62 1012.7
20260507154812 54 215 0.0 3.5 0.00 0.00 0.00 64 1012.6
20260507154345 54 215 0.0 3.5 0.00 0.00 0.00 64 1012.7
20260507153817 54 215 0.0 7.8 0.00 0.00 0.00 64 1012.7
20260507153328 54 215 2.6 7.8 0.00 0.00 0.00 63 1012.7
20260507152821 54 214 1.7 7.0 0.00 0.00 0.00 65 1012.7
20260507152333 54 214 1.7 5.2 0.00 0.00 0.00 64 1012.6
20260507151844 54 214 2.6 5.2 0.00 0.00 0.00 66 1012.7
20260507151319 55 214 0.0 7.8 0.00 0.00 0.00 65 1012.7
20260507150811 55 214 3.5 10.4 0.00 0.00 0.00 65 1012.7
20260507150325 56 214 1.7 10.4 0.00 0.00 0.00 65 1012.6
20260507145819 55 207 3.5 13.0 0.00 0.00 0.00 68 1012.6
20260507145351 55 204 1.7 13.0 0.00 0.00 0.00 66 1012.6
20260507144822 55 225 2.6 9.6 0.00 0.00 0.00 67 1012.6
20260507144315 55 225 2.6 8.7 0.00 0.00 0.00 69 1012.6
20260507143827 55 225 4.3 8.7 0.00 0.00 0.00 69 1012.5
20260507143318 54 230 3.5 6.1 0.00 0.00 0.00 70 1012.6
20260507142814 54 232 0.9 8.7 0.00 0.00 0.00 70 1012.6
20260507142326 54 232 2.6 8.7 0.00 0.00 0.00 71 1012.6
20260507141820 54 227 3.5 6.1 0.00 0.00 0.00 71 1012.7
20260507141312 53 226 1.7 7.8 0.00 0.00 0.00 72 1012.7
20260507140826 53 226 0.9 7.8 0.00 0.00 0.00 72 1012.7
20260507140319 52 226 0.0 7.8 0.00 0.00 0.00 72 1012.7
20260507135812 52 226 2.6 7.8 0.00 0.00 0.00 72 1012.8
20260507135324 52 244 1.7 6.1 0.00 0.00 0.00 72 1012.9
20260507134841 52 246 1.7 7.0 0.00 0.00 0.00 72 1012.9
20260507134312 52 248 2.6 5.2 0.00 0.00 0.00 73 1013.0
20260507133825 52 248 0.9 5.2 0.00 0.00 0.00 73 1013.0
20260507133317 52 248 1.7 4.3 0.00 0.02 0.00 73 1013.0
20260507132830 51 248 0.0 4.3 0.00 0.02 0.00 74 1013.0
20260507132320 51 248 0.9 4.3 0.00 0.02 0.00 74 1013.0
20260507131813 50 248 0.9 5.2 0.00 0.02 0.00 75 1013.1
20260507131344 50 248 0.9 5.2 0.00 0.02 0.00 75 1013.1
20260507130834 50 248 0.0 4.3 0.00 0.02 0.00 75 1013.2
20260507130324 49 248 1.7 6.1 0.00 0.02 0.00 77 1013.1
20260507125820 49 248 1.7 6.1 0.00 0.02 0.00 78 1013.1
20260507125310 48 248 0.0 0.0 0.00 0.02 0.00 79 1013.1
20260507124823 48 248 0.0 0.0 0.00 0.02 0.00 78 1013.0
20260507124314 48 248 0.0 3.5 0.00 0.02 0.00 79 1013.0
20260507123827 47 248 0.0 5.2 0.00 0.02 0.00 78 1013.0
20260507123319 47 248 0.0 5.2 0.00 0.05 0.00 80 1013.0
20260507122812 47 248 2.6 5.2 0.00 0.05 0.00 80 1013.0
20260507122324 46 248 1.7 6.1 0.00 0.05 0.00 80 1013.0
20260507121820 46 248 2.6 7.0 0.00 0.05 0.00 81 1013.1
20260507121331 46 248 2.6 7.0 0.00 0.05 0.00 81 1013.0
20260507120844 46 256 0.0 5.2 0.00 0.05 0.00 82 1013.0
20260507120316 45 256 1.7 5.2 0.00 0.05 0.00 82 1012.9
20260507115828 45 257 0.0 5.2 0.00 0.05 0.00 84 1012.9